TITAN 3C TRANSTAGE DEB, 1642

Orbit data source: Space-Track

TITAN 3C TRANSTAGE DEB, 1642 is space debris in LEO originally from a launch on Fri, 15 Oct 1965 UTC launched from the Air Force Eastern Test Range (AFETR). Debris objects in space refer to the collection of defunct objects orbiting the Earth. Examples of debris include non-operational satellites, rocket bodies, and fragments generated from explosions, collisions, or faulty payload assembly.

Loading next visibility...
Identifier
1642, 1965-082D
Orbit
LEO
Country
Flag of USUS
Related business
Manufacturer
Unknown
Mission
Spacecraft
Bus & Motor
Unknown
Mass
Unknown
Launch date (UTC)
1965-10-15 (60 years ago)
Launch vehicle
Unknown
Launch site
Air Force Eastern Test Range (AFETR)
Object type
Payload
Rocket body
Debris
Shape & HBR
Unknown shape, 1.5 m
Radar Cross Section
Large (>1 m²)

Expand to show TLE details & history
Last TLE update: 1 day ago

TLE from 1 day ago
0 TITAN 3C TRANSTAGE DEB
1 01642U 65082D   25309.57459727  .00001314  00000-0  14887-3 0  9999
2 01642  32.0922 115.4603 0023252  41.9378 318.3049 14.83940452204339
Epoch: 2025-11-05T13:47Z
TLE epoch observation values (Epoch: 2025-11-05T13:47:25.204Z)
Latitude
-0.00001°
Longitude
-136.44004°
Altitude
603.421 km
Speed
7.567 km/s
True Right ascension
07h 41m 50s
True Declination
0° 00' 00"
Sunlit
Object was in daylight at epoch
Visualization orbit readout
Latitude
Unknown
Longitude
Unknown
Altitude
Unknown
Speed
Unknown
Apparent Right ascension
Unknown
Apparent Declination
Unknown
Sunlit
N/A
Visualization observer readout
Local Sidereal Time
15:26:15
Azimuth
Unknown
Elevation
Unknown
Doppler factor
Unknown
Orbital elements
Apogee altitude
636.823 km
Perigee altitude
604.276 km
Semi-major axis
6,998.687 km
Eccentricity
0.00233
Inclination
32.0922°
RAAN
115.4603°
Arg. of periapsis
41.9378°
True anomaly
318.12728°
Mean anomaly
318.3049°
Eccentric anomaly
318.21613°
Mean motion
3.70696 °/min
Orbital period
97.11 mins
BSTAR
0.00014887

Documentation

Showing up to 5 results
|